Regional Weather Roundup
Issued by NWS

Home | Current Version | Previous Version | Text Only | Print | Product List | Glossary On
Versions: 1 2 3 4 5 6 7 8 9 10 11 12 13 14 15 16 17 18 19 20 21 22 23 24 25 26 27 28
000
ASUS44 KBMX 240410
RWRAL

ALABAMA REGIONAL WEATHER ROUNDUP
NATIONAL WEATHER SERVICE BIRMINGHAM AL
1000 PM CST THU NOV 23 2017

NOTE: "FAIR" INDICATES FEW OR NO CLOUDS BELOW 12,000 FEET
WITH NO SIGNIFICANT WEATHER AND/OR OBSTRUCTIONS TO VISIBILITY.

THE REMARK "TC" DENOTES TEMPERATURE IN DEGREES CELSIUS.

ALZ001>011-014-016>018-020-240500-
NORTH ALABAMA

CITY           SKY/WX    TMP DP  RH WIND       PRES   REMARKS
MUSCLE SHOALS  CLEAR     34  27  75 CALM      30.06S
HUNTSVILLE     CLEAR     36  32  85 CALM      30.05R
DECATUR        CLEAR     33  32  96 CALM      30.06R
HALEYVILLE     FAIR      30  27  88 CALM      30.06S
GADSDEN        CLEAR     36  36 100 CALM      30.04S
$$

ALZ012-013-022-023-030>036-040>044-240500-
WEST CENTRAL ALABAMA

CITY           SKY/WX    TMP DP  RH WIND       PRES   REMARKS
TUSCALOOSA     CLEAR     36  33  89 CALM      30.05S
DEMOPOLIS        N/A     33  31  93 SE3       30.04F
$$

ALZ015-024>026-033>036-041>044-240500-
CENTRAL ALABAMA

CITY           SKY/WX    TMP DP  RH WIND       PRES   REMARKS
BIRMINGHAM     CLEAR     39  36  89 CALM      30.06S
MONTGOMERY     CLEAR     40  35  83 CALM      30.03R
SHELBY CO ARPT CLEAR     41  37  86 CALM      30.03S
MAXWELL AFB    CLEAR     41  39  92 CALM      30.01R
GREENVILLE     FAIR      46  34  62 N6        30.01R
SELMA          FAIR      36  34  93 CALM      30.02F
PRATTVILLE     FAIR      41  37  85 CALM      30.02R
BESSEMER       FAIR      42  34  73 CALM      30.04S
TALLADEGA      FAIR      38  37  97 CALM      30.04S
PELL CITY      CLEAR     36  36 100 CALM      30.04S
MARION         FAIR      38  32  79 NW8       30.02F WCI  32
SYLACAUGA      FAIR      38  38 100 CALM      30.04S
$$

ALZ019-021-028-029-037-038-045>048-240500-
EAST CENTRAL ALABAMA

CITY           SKY/WX    TMP DP  RH WIND       PRES   REMARKS
ANNISTON       CLEAR     37  35  92 CALM      30.04R
ALEXANDER CITY CLEAR     40  39  95 CALM      30.02R
AUBURN         MOCLDY    52  45  77 E6        30.02S
$$

ALZ051>064-240500-
SOUTHWEST ALABAMA

CITY           SKY/WX    TMP DP  RH WIND       PRES   REMARKS
MOBILE         CLEAR     44  30  57 N6        30.04S
BROOKLEY FIELD CLEAR     46  34  62 NW7       30.05R
EVERGREEN      CLEAR     39  36  89 CALM      30.03R
$$

ALZ049-050-065>069-240500-
SOUTHEAST ALABAMA

CITY           SKY/WX    TMP DP  RH WIND       PRES   REMARKS
DOTHAN         CLEAR     53  49  86 N5        30.02S
OZARK          CLEAR     52  43  72 N3        29.99S
TROY           CLEAR     42  42 100 CALM      30.01S
EUFAULA        FAIR      50  49  96 CALM      29.99S
$$




USA.gov is the U.S. government's official web portal to all federal, state and local government web resources and services.